Find Starlink 5095

NORAD ID: 56885 Int'l Des: 2023-083 Owner: SPXS Country: US Constellation: starlink operational
LEOCIRCULAR

Live Position

Loading 3D Globe...

About Starlink 5095

Description loading...

Upcoming Passes

Passes for default location (London). Set your location on the main map for personalized predictions.

Altitude History

Loading altitude history...

Two-Line Element Set

1 56885U 23083K 26126.36070294 -.00005416 00000-0 -19210-3 0 9990
2 56885 43.0036 119.2242 0000846 237.2221 122.8549 15.26786131160455
Epoch: May 6, 2026 • Age: 14 hours

Current Status

Altitude 487.5 km
Velocity 7.63 km/s
Sub-Earth Point 35.31°N, 45.51°W
Launch Date Jun 12, 2023
Age 2.8 years
Type internet

Technical Details

Classification Payload
Mass 305.00 kg
Dry Mass 290.00 kg
Total Mass 305.00 kg
Length 0.20 m
Diameter 2.80 m
Span 9.00 m
Shape Box + pan
Manufacturer SPXS
Bus Type Starlink
Phase Status In Orbit
Owner/State SPXS/US

Most Searched